C/1995 O1 (Hale-Bopp)

Epoch 1997 Mar. 13.0 TT = JDT 2450520.5  

T 1997 Apr. 1.13730 TT                                  Nakano

q   0.9141404            (2000.0)            P               Q

z  +0.0054001      Peri.  130.58880     -0.13312078     -0.17030407

 +/-0.0000007      Node   282.47071     +0.28229387     +0.93780515

e   0.9950635      Incl.   89.43006     +0.95004686     -0.30251945

From 3133 observations 1993 Apr. 27-2007 Oct. 22, mean residual 0".84.

   Nongravitational parameters A1 = +1.37 +/- 0.03, A2 = +0.0973 +/- 0.0041.

   (1/a)org.= +0.003831, (1/a)fut.= +0.005583 (+/-0.000001), Q= 9.

   The comet has passed 0.77 AU from Jupiter on 1996 Apr. 5.0 UT.

Residuals in seconds of arc 

1993/                     960617 107  0.1+  2.0+    970211 006  0.1+  0.3-  

930427 413  2.1-  0.3-    960617 107 (0.8-  3.0+)   970212 056 (0.0   3.2-) 

1995/                     960617 605 (1.0+  5.1+)   970212 897  1.6-  0.6-  

950724 709  0.7-  0.9-    960617 605 (1.3+  5.1+)   970212 897  0.8-  1.7-  

950724 709  0.3-  0.0     960617 113 (0.2-  4.1+)   970214 897  0.4-  0.5-  

** See later rediduals in NK 1553 (http://www.oaa.gr.jp/~oaacs/nk/nk1553.htm) **



NAKANO

         **** Don't distribute anyone except personal use only ****

                (C) Copyright 2008 OAA/ComputingSection

write mail from CFAD0::NAKANO on 2008-02-15 03:48:10(JST).





◎ヘール・ボップ彗星  C/1995 O1 (Hale-Bopp)    (From YC 2461)

  すでに1997年に近日点を通過したこの彗星が2003年12月31日以来,久しぶりに

2005年1月8日にラスカンパナスの6.5-m反射+CCDで位置観測された.彼らから

報告されたコマ直径4".2角のCCD全光度は20.1等であった.彗星には,少なくとも

8".5の尾が見られたという(IAUC 8479).

  一方,和歌山の津村光則氏(Mitsunori Tsumura, Wakayama)は,2003年以来,

氏の西オーストラリアのワディー・ファーム(Waddi Farm, WA)でのCCD全光度観

測を次のとおり報告している.特に,2005年2月8日の氏のCCD全光度観測は,

18.4等と,彗星は比較的明るかったという.OAA計算課では,同氏より画像の提供

を受けて,氏の画像を次のように測定した(光度見積もりは,津村氏による).

画像は多数のフレームが合成されており,2004年と2005年の画像では,彗星は,

その上にたやすく目視できるが,中央集光がほとんどなく,6"〜12"ほどのコマが

非常に拡散しており,測定は困難であった.2003年と2004年は,20-cm f/5.0反射,

2005年は高橋530-mm f/5.0屈折に,それぞれ,CCDをつけての撮影であった.なお,

当計算課で測定したCCD全光度は,2004年に17.8等,2005年に18.3等であった.な

お,2002年以後の観測位置は,NK 774(= HICQ 2005)の軌道からのずれは,ほと

んど認められなかった.



    Year UT                  α    (2000)    δ            Mag.      Observer

                            h  m  s          。  ,  "

    2003 Feb.  3.69306    03 40 19.06    -81 39 40.1       16.4      Tsumura

    2004 Mar. 21.62703    03 29 16.30    -80 29 32.6       17.8        "

      "       25.56032    03 31 53.44    -80 21 07.7       18.0        "

    2005 Feb.  8.60608    02 53 01.81    -83 00 25.7                   "

      "        8.62540    02 53 02.12    -83 00 23.5       18.4        "

      "        8.64472    02 53 01.86    -83 00 19.9                   "



  OAA計算課では,サイデング・スプリングで見つかった1993年4月27日の発見前

の観測から津村氏によって行なわれた2005年2月8日の観測まで,3122個の観測

を使用して,次の軌道を計算した.平均残差は0".88(NK 1170; http://www.oaa

.gr.jp/~oaacs/nk/nk1170.htm).なお,位置予報は,HICQ 2005(p. H13)にあ

る.



           Epoch = 1997 Mar. 13.0 TT   。               A1 = +1.35, A2 = +0.0985

 T = 1997 Apr. 1.13728 TT     ω = 130.58879             (1/a)org.= +0.003830

 e =   0.9950643              Ω = 282.47071  (2000.0)   (1/a)fut.= +0.005583

 q =   0.9141406 AU           i =  89.43006                        ( Q = 9 )



NAKANO

         **** Don't distribute anyone except personal use only ****

                (C) Copyright 2005 OAA/ComputingSection

write mail from CFAD0::NAKANO on 2005-03-03 22:41:22(JST).

 

    C/1995 O1 (Hale-Bopp) 

Epoch 1997 Mar. 13.0 TT = JDT 2450520.5  

T 1997 Apr. 1.13726 TT                                  Nakano

q   0.9141415            (2000.0)            P               Q

z  +0.0053951      Peri.  130.58874     -0.13312038     -0.17030426

 +/-0.0000007      Node   282.47070     +0.28229280     +0.93780548

e   0.9950681      Incl.   89.43005     +0.95004723     -0.30251833

From 3000 observations 1993 Apr. 27-2001 Feb. 17, mean residual 0".82.

   Nongravitational parameters A1 = +1.27 +/- 0.03, A2 = +0.1144 +/- 0.0047.

   (1/a)org.= +0.003830, (1/a)fut.= +0.005579, L= 9.

 

See http://www.oaa.gr.jp/~oaacs/nk/nk774.htm for residual block.



NAKANO

         **** Don't distribute anyone except personal use only ****

                (C) Copyright 2001 OAA/ComputingSection

write mail from CFAD0::NAKANO on 2001-04-07 01:11:26(JST).

 





◎C/1995 O1の軌道です



    C/1995 O1 (Hale-Bopp) 

Epoch 1997 Mar. 13.0 TT = JDT 2450520.5  

T 1997 Apr. 1.13726 TT                                  Nakano

q   0.9141415            (2000.0)            P               Q

z  +0.0053951      Peri.  130.58874     -0.13312038     -0.17030426

 +/-0.0000007      Node   282.47070     +0.28229280     +0.93780548

e   0.9950681      Incl.   89.43005     +0.95004723     -0.30251833

From 3000 observations 1993 Apr. 27-2001 Feb. 17, mean residual 0".82.

   Nongravitational parameters A1 = +1.27 +/- 0.03, A2 = +0.1144 +/- 0.0047.

   (1/a)org.= +0.003830, (1/a)fut.= +0.005579, L= 9.

Residuals in seconds of arc 

1993/                     960612 046  0.1-  0.5-    970205 121 (1.1-  2.2-) 

930427 413  2.0-  0.3-    960612 605 (0.8+  6.5+)   970205 121  0.2-  1.9-  

1995/                     960612 605 (2.1+  6.9+)   970205 121 (0.3-  2.2-) 

950724 709  0.6-  0.9-    960613 605 (2.3+  6.0+)   970205 121  0.8-  2.0-  

950724 709  0.3-  0.0     960613 107 (0.4-  2.6+)   970205 121  0.5-  1.9-  

950724 709  0.7-  1.2-    960613 107 (0.1+  3.0+)   970205 006 (1.3-  3.3-) 

950724 709  0.5-  0.5-    960613 107 (1.7+  4.0+)   970205 006  0.3-  1.5-  

950724 709  0.8-  1.1-    960613 834  0.6+  1.7+    970205 006  0.4-  1.8-  

950724 709  0.8-  1.1-    960613 834  1.2+  0.8+    970207 017  0.7-  0.6+  

950724 709  0.9-  0.5-    960613 540  0.0   0.3+    970207 017  0.8-  0.5+  

950724 709  0.6-  1.0-    960613 540  0.7+  0.2-    970207 017  0.6-  1.0+  

950724 422  0.7-  1.0+    960613 540  0.0   0.1-    970207 017  0.7-  0.5+  

950724 422  1.0-  0.6+    960613 006  0.5-  0.9-    970207 017  0.7-  0.6+  

950724 422  0.7-  0.0     960614 046  0.2+  0.6-    970207 017  0.7-  0.7+  

950724 359  0.4-  0.5+    960614 046  0.2+  0.6-    970207 017  0.6-  0.3+  

950724 897  0.4-  0.1-    960614 046  0.2+  0.5-    970207 017  0.8-  0.7+  

950724 411  0.6-  0.0     960614 107  0.3+  1.4+    970207 017  0.7-  0.6+  

950724 897  0.6-  0.5+    960614 046  0.1-  0.9-    970207 017  0.7-  0.8+  

950724 896  1.0-  0.3+    960614 046  0.2-  0.7-    970207 017  0.9-  0.5+  

950724 897  0.1-  1.7+    960614 046  0.1-  0.3-    970207 017  0.7-  0.7+  

950724 896  1.0-  1.2+    960614 046  0.2+  1.0-    970207 017  0.7-  1.1+  

950724 411  0.9-  0.6-    960614 046  0.1-  0.7-    970207 017  0.8-  0.9+  

950724 359  0.3-  0.2-    960614 107 (1.0+  2.3+)   970207 017  0.8-  0.8+  

950724 411  0.8-  0.4-    960615 107  1.2+  1.6+    970207 017  0.8-  0.8+  

950724 359  1.0-  1.5-    960615 107  0.7+  1.4+    970207 017  0.6-  0.5+  

950724 896  0.8-  0.4+    960615 107  0.6-  1.9+    970207 017  0.7-  0.7+  

950724 367  1.2-  0.0     960615 801 (1.0+  4.5+)   970207 017  0.8-  0.6+  

950724 367  0.4-  0.3+    960615 801  0.1-  1.1+    970207 017  0.7-  0.7+  

950724 864  0.5-  0.6-    960615 107 (1.6-  3.4+)   970207 017  0.7-  0.9+  

950724 864  2.0-  0.4-    960615 107 (0.8+  4.7+)   970207 017  0.7-  0.9+  

950724 046  0.8-  0.1-    960615 107 (1.5+  3.4+)   970207 017  0.8-  1.0+  

950724 046  0.6-  0.5+    960616 560  1.0+  0.5+    970207 017  0.8-  1.0+  

950724 046  0.3-  0.2+    960616 560  0.3-  1.0-    970207 017  0.7-  1.0+  

950724 046  0.6-  0.1-    960616 120 (0.0   2.2+)   970207 017  0.7-  1.1+  

950724 046  0.7-  0.3+    960616 120  0.8+  1.4+    970207 017  0.7-  1.0+  

950724 595  0.4-  1.1+    960616 120  0.0   1.8+    970207 017  0.7-  0.9+  

950724 595  0.2+  0.2+    960616 046  0.7-  0.5-    970207 017  0.7-  1.0+  

950725 709  0.6-  0.2-    960616 046  0.7-  0.6-    970207 017  0.8-  1.1+  

950725 709  0.7-  0.6-    960617 046  0.8-  0.5-    970207 017  0.6-  1.1+  

950725 709  0.5-  0.4+    960617 107 (1.0+  3.7+)   970207 017  0.7-  1.0+  

950725 709  0.4-  0.3-    960617 107  0.2+  2.0+    970207 017  0.7-  0.8+  

950725 709  0.8-  0.4-    960617 107 (0.8-  3.0+)   970207 017  0.9-  0.7+  

950725 709  0.3-  0.3-    960617 605 (1.0+  5.1+)   970207 017  0.7-  0.4+  

950725 688 (4.2-  1.6+)   960617 605 (1.4+  5.2+)   970207 017  0.9-  0.7+  

950725 688 (4.1-  1.3+)   960617 113 (0.2-  4.1+)   970207 017  0.9-  0.9+  

950725 688 (3.8-  1.1+)   960617 113 (2.0+  6.2+)   970207 017  0.8-  0.8+  

950725 709  0.4-  0.4-    960617 610  0.4+  1.5+    970207 017  0.8-  0.5+  

950725 372  0.2+  0.3+    960618 610  0.1+  1.6+    970208 046  0.8-  0.1+  

950725 372  0.0   0.7+    960618 113 (0.6+  4.8+)   970208 046  0.8-  0.2+  

950725 359  0.3+  0.3+    960618 610  0.1+  1.7+    970208 046  0.9-  0.1+  

950725 359  0.3+  0.4+    960618 610  0.3-  1.8+    970208 046  0.9-  0.1-  

950725 359  0.2+  0.1-    960618 610  0.4-  1.8+    970210 089  0.8-  0.2-  

950725 864  0.1+  0.0     960618 113 (1.2+  7.2+)   970210 089  1.3-  0.2-  

950725 864  1.1+  0.8+    960618 834  0.4+  2.0+    970210 046  1.2-  0.6-  

950725 402  0.3-  0.8+    960618 834  0.6+  2.0+    970210 046  1.3-  0.4-  

950725 402  0.8-  0.6+    960618 864  0.4+  0.5-    970210 017  1.5-  0.8+  

950725 402  0.2-  0.9+    960618 864  0.7+  0.5-    970210 017  1.3-  0.6+  

950725 402  0.1-  0.2+    960618 107  0.5+  1.7+    970210 046  1.2-  0.7-  

950725 589  1.9-  0.3+    960618 107  1.0+  1.6+    970210 017  1.3-  0.9+  

950725 046  0.8-  0.7+    960618 107 (0.5-  2.6+)   970210 046  1.1-  0.5-  

950725 046  0.4-  0.2+    960618 108  0.2+  0.8-    970210 017  1.3-  0.8+  

950725 046  0.3-  0.1-    960619 107  2.0+  0.7-    970210 017  1.5-  0.7+  

950725 046  0.5-  0.2-    960619 107 (1.4+  2.4+)   970210 017  1.5-  0.7+  

950725 046  0.2-  0.3-    960619 107 (0.2+  2.7+)   970210 017  1.4-  0.3+  

